Date String (YYYY-MM-DD hh:mm:ss) UTC,Instrument flags,absolute air pressure of the measurement (hPa),sample flow rate (lpm),inlet stack bypass flow (lpm),air temperature of the measurement (°C),ambient temperature measured by the external sensor (°C),aerosol sample conditioner tube jacket temperature (°C),OPC LED temperature (°C),internal box temperature (°C),relative humidity of the measurement (%),span deviation,mass concentration of particles derived from Lorenz-Mie calculation of OPC scattering (μg/m³),mass concentration of particles derived from Lorenz-Mie calculation of OPC scattering (μg/m³),mass concentration of particles derived from Lorenz-Mie calculation of OPC scattering (μg/m³)
DateTimeUTC,F1_M11,P_M11,Q1_M11,Q2_M11,T1_M11,T2_M11,T3_M11,T4_M11,T5_M11,U1_M11,ZSPAN_M11,X0_M11,X2_M11,X1_M11
2023-11-17 21:00:00,SystemResetWarning,0830.9,4.99,000.00,025.8,024.8,000.0,033.8,027.5,19.6,0000.2,0019.80,0011.50,0010.47
2023-11-17 21:01:00,SystemResetWarning,0830.8,4.99,000.00,025.9,025.0,000.0,033.9,027.5,19.6,0000.5,0019.92,0011.57,0010.51
2023-11-17 21:02:00,SystemResetWarning,0830.8,5.00,000.00,025.9,025.1,000.0,033.9,027.6,19.5,0000.7,0020.56,0011.62,0010.55
2023-11-17 21:03:00,SystemResetWarning,0830.8,5.01,000.00,026.0,025.2,000.0,033.9,027.7,19.4,0000.7,0020.98,0011.62,0010.55
2023-11-17 21:04:00,SystemResetWarning,0830.8,5.00,000.00,026.0,025.0,000.0,034.0,027.7,19.3,0000.6,0021.13,0011.62,0010.55
2023-11-17 21:05:00,SystemResetWarning,0830.8,5.00,000.00,026.0,023.2,000.0,033.9,027.4,19.3,0000.8,0021.39,0011.62,0010.53
2023-11-17 21:06:00,SystemResetWarning,0830.8,5.02,000.00,025.9,022.6,000.0,033.9,027.2,19.4,0001.1,0021.07,0011.67,0010.56
2023-11-17 21:07:00,SystemResetWarning,0830.8,5.00,000.00,025.8,022.8,000.0,033.9,026.9,19.6,0001.3,0021.50,0011.71,0010.62
2023-11-17 21:08:00,SystemResetWarning,0830.8,5.00,000.00,025.7,023.1,000.0,033.9,026.8,19.7,0001.7,0022.03,0011.77,0010.69
2023-11-17 21:09:00,SystemResetWarning,0830.9,5.00,000.00,025.7,023.5,000.0,033.9,026.9,19.7,0001.6,0022.67,0011.84,0010.74
2023-11-17 21:10:00,SystemResetWarning,0830.8,5.00,000.00,025.7,023.8,000.0,033.8,027.1,19.7,0001.7,0022.37,0011.89,0010.77
2023-11-17 21:11:00,SystemResetWarning,0830.8,5.00,000.00,025.7,024.1,000.0,033.9,027.2,19.6,0001.9,0023.01,0011.94,0010.82
2023-11-17 21:12:00,SystemResetWarning,0830.8,5.00,000.00,025.8,024.4,000.0,033.9,027.3,19.5,0001.9,0023.77,0012.01,0010.85
2023-11-17 21:13:00,SystemResetWarning,0830.8,5.00,000.00,025.8,024.6,000.0,033.9,027.4,19.5,0001.6,0023.63,0012.01,0010.89
2023-11-17 21:14:00,SystemResetWarning,0830.8,5.00,000.00,025.9,024.8,000.0,033.9,027.5,19.4,0001.4,0022.77,0012.00,0010.91
2023-11-17 21:15:00,SystemResetWarning,0830.9,5.00,000.00,025.9,024.9,000.0,033.9,027.6,19.4,0001.2,0022.36,0012.01,0010.93
2023-11-17 21:16:00,SystemResetWarning,0830.9,5.00,000.00,026.0,025.1,000.0,034.0,027.6,19.2,0001.3,0021.94,0012.03,0010.96
2023-11-17 21:17:00,SystemResetWarning,0830.9,4.99,000.00,026.0,024.6,000.0,034.0,027.6,19.2,0001.1,0022.16,0012.02,0010.96
2023-11-17 21:18:00,SystemResetWarning,0830.9,4.99,000.00,025.9,022.6,000.0,033.9,027.1,19.3,0001.1,0021.65,0012.01,0010.95
2023-11-17 21:19:00,SystemResetWarning,0830.9,5.02,000.00,025.7,021.5,000.0,033.9,026.8,19.5,0001.0,0021.76,0011.98,0010.95
2023-11-17 21:20:00,SystemResetWarning,0830.9,5.00,000.00,025.6,021.7,000.0,033.8,026.6,19.7,0000.9,0021.36,0011.97,0010.96
2023-11-17 21:21:00,SystemResetWarning,0830.9,5.00,000.00,025.5,022.2,000.0,033.8,026.4,19.8,0000.9,0021.91,0012.07,0011.00
2023-11-17 21:22:00,SystemResetWarning,0830.9,5.00,000.00,025.4,022.7,000.0,033.8,026.6,19.9,0000.9,0021.21,0012.14,0011.04
2023-11-17 21:23:00,SystemResetWarning,0830.9,5.00,000.00,025.4,023.1,000.0,033.7,026.7,19.9,0000.8,0020.91,0012.15,0011.07
2023-11-17 21:24:00,SystemResetWarning,0830.9,5.00,000.00,025.5,023.4,000.0,033.7,026.8,19.8,0001.0,0020.86,0012.20,0011.09
2023-11-17 21:25:00,SystemResetWarning,0830.9,5.00,000.00,025.5,023.8,000.0,033.7,027.0,19.7,0001.0,0021.30,0012.28,0011.11
2023-11-17 21:26:00,SystemResetWarning,0831.0,4.99,000.00,025.5,024.0,000.0,033.7,027.1,19.7,0001.2,0021.94,0012.36,0011.13
2023-11-17 21:27:00,SystemResetWarning,0831.0,5.00,000.00,025.6,024.3,000.0,033.7,027.2,19.6,0001.3,0023.30,0012.44,0011.18
2023-11-17 21:28:00,SystemResetWarning,0830.9,5.00,000.00,025.6,024.5,000.0,033.7,027.3,19.6,0001.5,0023.96,0012.44,0011.23
2023-11-17 21:29:00,SystemResetWarning,0831.0,5.00,000.00,025.7,024.6,000.0,033.8,027.3,19.5,0001.5,0023.67,0012.45,0011.26
2023-11-17 21:30:00,SystemResetWarning,0831.0,5.00,000.00,025.7,024.8,000.0,033.8,027.4,19.5,0001.4,0023.58,0012.48,0011.29
2023-11-17 21:31:00,SystemResetWarning,0831.1,5.00,000.00,025.8,024.9,000.0,033.8,027.5,19.4,0001.3,0022.68,0012.51,0011.31
2023-11-17 21:32:00,SystemResetWarning,0831.1,5.00,000.00,025.9,025.0,000.0,033.8,027.5,19.4,0001.6,0021.76,0012.50,0011.31
2023-11-17 21:33:00,SystemResetWarning,0831.1,5.00,000.00,025.9,025.1,000.0,033.9,027.6,19.3,0001.7,0021.27,0012.48,0011.30
2023-11-17 21:34:00,SystemResetWarning,0831.1,4.99,000.00,026.0,025.2,000.0,033.9,027.6,19.2,0001.9,0021.19,0012.44,0011.27
2023-11-17 21:35:00,SystemResetWarning,0831.2,4.99,000.00,026.0,023.9,000.0,033.9,027.5,19.2,0001.7,0021.30,0012.41,0011.25
2023-11-17 21:36:00,SystemResetWarning,0831.1,5.00,000.00,025.8,022.0,000.0,033.9,027.0,19.3,0001.7,0021.36,0012.41,0011.25
2023-11-17 21:37:00,SystemResetWarning,0831.1,5.01,000.00,025.7,021.6,000.0,033.8,026.7,19.4,0001.9,0021.76,0012.41,0011.25
2023-11-17 21:38:00,SystemResetWarning,0831.1,5.02,000.00,025.5,021.9,000.0,033.8,026.4,19.6,0001.9,0021.24,0012.37,0011.24
2023-11-17 21:39:00,SystemResetWarning,0831.1,4.99,000.00,025.4,022.4,000.0,033.7,026.4,19.7,0001.9,0020.62,0012.38,0011.22
2023-11-17 21:40:00,SystemResetWarning,0831.1,5.00,000.00,025.4,022.8,000.0,033.7,026.6,19.8,0001.6,0020.79,0012.38,0011.20
2023-11-17 21:41:00,SystemResetWarning,0831.1,5.01,000.00,025.4,023.2,000.0,033.7,026.7,19.7,0001.7,0022.03,0012.39,0011.19
2023-11-17 21:42:00,SystemResetWarning,0831.1,5.00,000.00,025.4,023.5,000.0,033.7,026.9,19.7,0001.8,0022.08,0012.40,0011.21
2023-11-17 21:43:00,SystemResetWarning,0831.2,5.00,000.00,025.5,023.8,000.0,033.7,027.0,19.7,0001.7,0021.99,0012.40,0011.22
2023-11-17 21:44:00,SystemResetWarning,0831.1,5.00,000.00,025.5,024.1,000.0,033.7,027.1,19.6,0001.7,0021.78,0012.45,0011.26
2023-11-17 21:45:00,SystemResetWarning,0831.1,5.01,000.00,025.6,024.3,000.0,033.7,027.2,19.5,0001.3,0021.85,0012.48,0011.31
2023-11-17 21:46:00,SystemResetWarning,0831.2,5.00,000.00,025.6,024.5,000.0,033.7,027.3,19.5,0001.4,0022.02,0012.52,0011.35
2023-11-17 21:47:00,SystemResetWarning,0831.2,5.00,000.00,025.7,024.7,000.0,033.7,027.4,19.4,0001.3,0023.58,0012.57,0011.38
2023-11-17 21:48:00,SystemResetWarning,0831.2,5.00,000.00,025.7,024.8,000.0,033.8,027.4,19.3,0001.0,0023.27,0012.62,0011.43
2023-11-17 21:49:00,SystemResetWarning,0831.2,4.99,000.00,025.8,024.9,000.0,033.8,027.5,19.2,0001.1,0022.98,0012.63,0011.48
2023-11-17 21:50:00,SystemResetWarning,0831.2,5.00,000.00,025.9,025.0,000.0,033.8,027.5,19.1,0001.2,0022.83,0012.66,0011.51
2023-11-17 21:51:00,SystemResetWarning,0831.1,5.01,000.00,025.9,025.1,000.0,033.9,027.6,19.1,0001.4,0022.94,0012.73,0011.55
2023-11-17 21:52:00,SystemResetWarning,0831.1,5.01,000.00,026.0,025.2,000.0,033.9,027.7,19.0,0001.4,0022.11,0012.76,0011.58
2023-11-17 21:53:00,SystemResetWarning,0831.1,4.99,000.00,026.0,024.2,000.0,033.9,027.6,18.9,0001.4,0022.80,0012.79,0011.61
2023-11-17 21:54:00,SystemResetWarning,0831.1,5.00,000.00,025.9,022.2,000.0,033.9,027.1,18.9,0001.5,0023.52,0012.88,0011.66
2023-11-17 21:55:00,SystemResetWarning,0831.2,5.02,000.00,025.7,021.6,000.0,033.8,026.8,19.1,0001.4,0023.74,0012.93,0011.71
2023-11-17 21:56:00,SystemResetWarning,0831.1,4.99,000.00,025.5,021.9,000.0,033.8,026.5,19.2,0001.4,0024.90,0012.92,0011.74
2023-11-17 21:57:00,SystemResetWarning,0831.1,5.00,000.00,025.4,022.3,000.0,033.7,026.5,19.4,0001.4,0024.78,0012.97,0011.78
2023-11-17 21:58:00,SystemResetWarning,0831.1,5.01,000.00,025.4,022.8,000.0,033.7,026.6,19.4,0001.4,0023.67,0013.03,0011.82
2023-11-17 21:59:00,SystemResetWarning,0831.1,5.01,000.00,025.4,023.2,000.0,033.7,026.8,19.4,0001.4,0023.27,0013.05,0011.86
